Погода в Зимовники

Погода в Зимовники : погода сейчас, прогноз погоды и архив. Всё, что Вы хотите узнать о погоде в Зимовники!

Поиск расширенной информации на нашем сайте:

Другие новости

Новости СМИ2

Главная страница сайта

Новости сайта

03.07.2017

Напоминаем, что на нашем специализированном сайте Метеоцентр.Азия вы можете получить высокодетализированные автоматические прогнозы погоды по пунктам России, СНГ и мира в авиационном формате (включающие направление и скорость ветра, видимость, явления погоды, количество и форму облачности, нижнюю и верхнюю границу облачности).


Погода в Зимовники - сегодня

Время (UTC), дата Ветер
(°,м/с) 
Видим.   Явления Облачность Т
(°С)
Тd
(°С)
f(%) Тe
(°С)
Pmin
(гПа)
dP
(гПа)
Po
(мм)
O2
(г/м3)
Тmin Tmax R s Состояние
почвы
18 14.02.18 110 (В) 2000 м  дымка  10/10 300 м 
[Sc]
-3.1 -3.6 96 -4  1028.2  1.2  764  312           
21 14.02.18 110 (В) 4000 м  дымка  10/10 300 м 
[Sc]
-3.1 -4.4 91 -6  1028.1  0.1  764  312           
00 15.02.18 100 (В) 4000 м  дымка  10/10 300 м 
[Sc]
-3.9 -5.2 91 -5  1028.5  0.3  764  313           
03 15.02.18 110 (В) 4000 м  дымка  10/10 300 м 
[Sc]
-3.1 -4.2 92 -5  1029.9  1.5  765  312  -4.2         
06 15.02.18 090 (В) 6-10{10}  10 км    10/10 600 м 
[Sc]
-3.3 -4.9 89 -7  1031  766  313           
09 15.02.18 100 (В) 4{11}  10 км    10/0 средняя 
[Ac und]
-2 -4.2 85 -5  1032  1.1  767  312           
12 15.02.18 090 (В) 5{11}  10 км    10/0 средняя 
[Ac und]
-1.7 -3.9 85 -5  1031.9  -0.1  767  311           
15 15.02.18 090 (В) 10 км    6/0 средняя, верхняя 
[Ac trans|Ci fib]
-3.1 -5.1 86 -7  1032.1  0.2  767  313    -1.6       
18 15.02.18 100 (В) 4{10}  10 км    3/0 верхняя 
[Ci fib]
-4.3 -6.8 83 -7  1032.9  0.7  768  315           
21 15.02.18 090 (В) 5-10{10}  10 км    3/0 средняя 
[Ac trans]
-4.1 -7.5 77 -8  1033  0.2  768  315           
00 16.02.18 100 (В) 6-10{12}  10 км  позёмок  ясно 
-6.3 -9.2 80 -11  1032.9  -0.2  768  318           
03 16.02.18 100 (В) 10 км  позёмок  10/10 300 м 
[Sc]
-6.2 -7.9 88 -11  1033.2  0.2  768  317  -6.8         
06 16.02.18 090 (В) 6-10{12}  4000 м  дымка  10/10 300 м 
[Sc]
-6.3 -7.4 92 -11  1033.6  0.5  768  318           
09 16.02.18 090 (В) 7-12{12}  10 км    4/0 верхняя 
[Ci fib]
-4.8 -7.6 81 -10  1032.7  -0.9  767  316           
12 16.02.18 090 (В) 6-11{12}  10 км    10/10 300 м 
[St]
-1.3 -4.6 78 -5  1031.6  -1  767  311           
15 16.02.18 100 (В) 5{11}  10 км    10/10 300 м 
[St]
+0.8 -3 76 -2  1030.9  -0.6  766  308    +0.8       
18 16.02.18 100 (В) 5-10{10}  10 км    10/0 средняя 
[Ac und]
+0.4 -4.6 69 -3  1030.6  -0.4  766  309           
21 16.02.18 100 (В) 6-11{12}  10 км  позёмок  10/0 средняя 
[Ac und]
-1.1 -5.3 73 -5  1029.5  -1  765  310           
00 17.02.18 100 (В) 5{11}  10 км    10/10 300 м 
[Sc]
-2.2 -4.8 82 -6  1028.6  -0.9  765  311           
03 17.02.18 090 (В) 10 км    10/10 300 м 
[Sc]
-2.9 -5.1 85 -6  1028.2  -0.5  764  312  -2.9      10  равномерный
мокрый или
старый снег
100% 
06 17.02.18 100 (В) 6-10{11}  10 км    10/10 300 м 
[Sc]
-3.2 -5.8 82 -7  1027.4  -0.8  764  312  -3.4         
09 17.02.18 100 (В) 4{11}  10 км    10/0 средняя 
[Ac und]
-1.6 -4.4 81 -4  1026.4  -1  763  310           
12 17.02.18 090 (В) 5-11{11}  10 км    10/10 600 м 
[Sc]
-0.8 -3 85 -4  1024.7  -1.6  762  308           
15 17.02.18 100 (В) 5-10  10 км    10/0 средняя 
[Ac und]
-0.3 -2.7 84 -3  1024.1  -0.6  761  307    -0.2       
18 17.02.18 100 (В) 5{10}  10 км    10/10 300 м 
[Sc]
-0.6 -4.1 77 -4  1023.4  -0.7  761  308           
Время (UTC), дата Ветер
(°,м/с) 
Видим.   Явления Облачность Т
(°С)
Тd
(°С)
f(%) Тe
(°С)
Pmin
(гПа)
dP
(гПа)
Po
(мм)
O2
(г/м3)
Тmin Tmax R s Состояние
почвы

Для получения пояснительной информации подведите курсор к названию столбца.

ПОГОДА в Зимовники - архив

Всё, что Вы хотите узнать о погоде в Зимовники - удобно и подробно!

Выберите нужную дату (начиная с 1 января 2015* года) и нажмите кнопку "Найти".
Будут отображены архивные сводки погоды по пункту Зимовники, начиная с указанной даты.


Отображать данные в формате CSV (для использования в таблицах Excel)


Внимание! Наш архив погоды предназначен исключительно для личного некоммерческого использования в познавательных целях. Если Вам необходимы официальные справки о состоянии погоды (для производственных, юридических, коммерческих и т.п. целей), обращайтесь в органы Росгидромета.

*Примечание: данная дата относится к архиву по метеостанциям СССР (Россия, СНГ, Балтия).
Архив по метеостанциям Зарубежной Европы и Азии (кроме Китая) хранится 10 дней, по другим регионам земного шара (Китай, Африка, Америка, Австралия, Океания) - 1 день.

Зимовники - район местоположения метеостанции


Название, широта, долгота, высота метеостанции:
Зимовники 47.2°ш. 42.5°д. 72 м над ур. моря [Российская Федерация]

Дополнительная информация

В oтличие oт бoльшинства пoгoдных сайтoв мы публикуем пoдрoбную метеoинфoрмацию в детальнoм прoфессиoнальнoм фoрмате.

Характеристики температуры и влажнoсти вoздуха измеряются на высoте 2 м в тени вдали oт зданий и деревьев.
Скoрoсть ветра измеряется на высoте 10 м (на урoвне рoста челoвека скoрoсть ветра ниже в 1.5-2 раза). Если метеoстанция нахoдится в гoрoде или в лесу, тo скoрoсть ветра занижена на 2-4 м/с пo сравнению с oткрытым местoм. Скoрoсть ветра над акватoриями крупных рек и oзёр, а также на вершинах хoлмoв на 2-5 м/с выше, чем в oбычных услoвиях.
Атмoсфернoе давление в разных тoчках местнoсти мoжет значительнo oтличаться oт давления на метеoстанции, в зависимoсти oт услoвий рельефа (при пoдъёме на 10 м давление пoнижается примернo на 1 мм рт.ст.).